Probability
0 0 0 0 0 0 0 0 0 0 0 0 0 0 0 0 0 0 0 0 0 0 0 0 0 0 0 0 0 0 0 0 0 0 0 0 0 0 0 0 0 0 0 0
0 0 0 0 0 0 0 0 0 0 0 0 0 0 0 0 0 0 0 0 0 0 0 0 0 0 0 0 0 0 0 0 0 0 0 0 0 0 0 0 0 0 0 0
0 0 0 0 0 0 0 0 0 0 0 0 0 0 0 0 0 0 0 0 0 0 0 0 0 0 0 0 0 0 0 0 0 0 0 0 0 0 0 0 0 0 0 0
0 0 0 0 0 0 0 0 0 0 0 0 0 0 0 0 0 0 0 0 0 0 0 0 0 0 0 0 0 0 0 0 0 0 0 0 0 0 0 0 0 0 0 0
0 0 0 0 0 0 0 0 0 0 0 0 0 0 0 0 0 0 0 0 0 0 0 0 0 0 0 0 0 0 0 0 0 0 0 0 0 0 0 0 0 0 0 0
0 0 0 0 0 0 0 0 0 0 0 0 0 0 0 0 0 0 0 0 0 0 0 0 0 0 0 0 0 0 0 0 0 0 0 0 0 0 0 0 0 0 0 0
0 0 0 0 0 0 0 0 0 0 0 0 0 0 0 0 0 0 0 0 0 0 0 0 0 0 0 0 0 0 0 0 0 0 0 0 0 0 0 0 0 0 0 0
0 0 0 0 0 0 0 0 0 0 0 0 0 0 0 0 0 0 0 0 0 0 0 0 0 0 0 0 0 0 0 0 0 0 0 0 0 0 0 0 0 0 0 0
0 0 0 0 0 0 0 0 0 0 0 0 0 0 0 0 0 0 0 0 0 0 0 0 0 0 0 0 0 0 0 0 0 0 0 0 0 0 0 0 0 0 0 0
0 0 0 0 0 0 0 0 0 0 0 0 0 0 0 0 0 0 0 0 0 0 0 0 0 0 0 0 0 0 0 0 0 0 0 0 0 0 0 0 0 0 0 0
0 0 0 0 0 0 0 0 0 0 0 0 0 0 0 0 0 0 0 0 0 0 0 0 0 0 0 0 0 0 0 0 0 0 0 0 0 0 0 0 0 0 0 0
0 0 0 0 0 0 0 0 0 0 0 0 0 0 0 0 0 0 0 0 0 0 0 0 0 0 0 0 0 0 0 0 0 0 0 0 0 0 0 0 0 0 0 0
0 0 0 0 0 0 0 0 0 0 0 0 0 0 0 0 0 0 0 0 0 0 0 0 0 0 0 0 0 0 0 0 0 0 0 0 0 0 0 0 0 0 0 0
0 0 0 0 0 0 0 0 0 0 0 0 0 0 0 0 0 0 0 0 0 0 0 0 0 0 0 0 0 0 0 0 0 0 0 0 0 0 0 0 0 0 0 0
0 0 0 0 0 0 0 0 0 0 0 0 0 0 0 0 0 0 0 0 0 0 0 0 0 0 0 0 0 0 0 0 0 0 0 0 0 0 0 0 0 0 0 0
0 0 0 0 0 0 0 0 0 0 0 0 0 0 0 0 0 0 0 0 0 0 0 0 0 0 0 0 0 0 0 0 0 0 0 0 0 0 0 0 0 0 0 0
0 0 0 0 0 0 0 0 0 0 0 0 0 0 0 0 0 0 0 0 0 0 0 0 0 0 0 0 0 0 0 0 0 0 0 0 0 0 0 0 0 0 0 0
0 0 0 0 0 0 0 0 0 0 0 0 0 0 0 0 0 0 0 0 0 0 0 0 0 0 0 0 0 0 0 0 0 0 0 0 0 0 0 0 0 0 0 0
0 0 0 0 0 0 0 0 0 0 0 0 0 0 0 0 0 0 0 0 0 0 0 0 0 0 0 0 0 0 0 0 0 0 0 0 0 0 0 0 0 0 0 0
0 0 0 0 0 0 0 0 0 0 0 0 0 0 0 0 0 0 0 0 0 0 0 0 0 0 0 0 0 0 0 0 0 0 0 0 0 0 0 0 0 0 0 0
0 0 0 0 0 0 0 0 0 0 0 0 0 0 0 0 0 0 0 0 0 0 0 0 0 0 0 0 0 0 0 0 0 0 0 0 0 0 0 0 0 0 0 0
0 0 0 0 0 0 0 0 0 0 0 0 0 0 0 0 0 0 0 0 0 0 0 0 0 0 0 0 0 0 0 0 0 0 0 0 0 0 0 0 0 0 0 0
0 0 0 0 0 0 0 0 0 0 0 0 0 0 0 0 0 0 0 0 0 0 0 0 0 0 0 0 0 0 0 0 0 0 0 0 0 0 0 0 0 0 0 0
0 0 0 0 0 0 0 0 0 0 0 0 0 0 0 0 0 0 0 0 0 0 0 0 0 0 0 0 0 0 0 0 0 0 0 0 0 0 0 0 0 0 0 0
0 0 0 0 0 0 0 0 0 0 0 0 0 0 0 0 0 0 0 0 0 0 0 0 0 0 0 0 0 0 0 0 0 0 0 0 0 0 0 0 0 0 0 0
0 0 0 0 0 0 0 0 0 0 0 0 0 0 0 0 0 0 0 0 0 0 0 0 0 0 0 0 0 0 0 0 0 0 0 0 0 0 0 0 0 0 0 0
0 0 0 0 0 0 0 0 0 0 0 0 0 0 0 0 0 0 0 0 0 0 0 0 0 0 0 0 0 0 0 0 0 0 0 0 0 0 0 0 0 0 0 0
Wind_Speed
5 5 3 3 5 3 4 7 7 7 6 8 6 5 5 4 3 4 5 6 8 9 9 8 8 8 8 8 7 7 7 7 7 6 5 4 3 2 2 1 1 2 1 0
4 4 3 4 5 4 4 4 5 4 5 6 4 1 0 2 3 4 6 7 8 8 8 9 10 9 8 8 8 8 8 8 6 5 5 4 4 3 2 1 1 1 1 1
4 6 4 4 4 3 2 2 3 4 6 4 1 1 2 2 2 4 5 6 7 8 9 10 10 10 10 10 8 8 8 7 7 6 6 5 4 3 3 2 2 2 2 1
1 3 2 7 4 1 2 2 2 1 3 2 3 2 1 1 3 3 3 4 5 6 7 8 8 8 8 7 8 8 8 8 7 7 7 5 4 4 4 3 2 2 2 2
2 1 5 7 5 2 1 3 5 2 3 3 2 4 5 3 2 4 4 4 5 6 6 6 7 7 7 8 8 8 8 8 9 8 7 6 6 5 4 3 2 2 2 2
3 2 4 6 8 4 4 2 6 3 3 4 5 4 5 6 4 3 3 2 2 3 3 5 6 6 8 8 8 10 10 10 9 9 8 8 7 6 4 3 3 3 2 2
3 3 6 6 6 4 4 4 5 2 2 3 1 3 5 5 4 4 2 2 1 2 3 5 5 6 8 8 10 11 9 8 8 8 9 8 6 4 4 4 3 2 2 1
2 2 5 6 4 2 4 3 2 2 2 2 2 3 4 4 4 4 4 3 1 1 3 3 4 6 7 9 9 7 7 7 8 8 8 7 6 5 4 4 4 3 2 1
5 6 4 2 0 1 1 1 2 2 3 2 3 3 4 4 4 4 4 4 3 2 3 3 4 6 8 8 6 6 7 7 7 7 6 6 7 6 4 4 4 3 3 3
2 3 4 3 3 3 2 2 2 2 2 3 3 4 4 4 5 5 5 4 3 2 3 4 4 5 6 5 5 7 8 7 6 6 5 5 5 6 5 5 5 4 4 4
3 5 4 4 4 3 4 3 4 4 3 3 3 4 4 4 5 5 5 4 3 3 4 5 4 5 4 4 6 6 7 6 6 6 6 5 4 4 6 6 7 7 6 5
6 6 4 6 5 3 3 3 3 4 4 4 3 4 5 5 5 5 5 5 5 5 5 5 4 5 4 5 6 6 5 5 5 5 4 5 4 2 2 4 6 9 9 8
6 5 4 4 3 2 2 3 4 3 3 4 4 4 4 5 5 5 5 5 5 6 6 5 5 5 5 5 6 7 7 6 5 5 6 6 5 5 4 1 1 4 7 9
4 2 3 3 3 3 2 3 4 3 3 4 4 4 4 5 5 6 6 6 6 6 5 5 5 6 5 5 6 7 6 7 6 6 6 6 6 6 6 6 4 2 3 7
3 2 3 3 2 3 3 3 4 4 5 6 5 5 5 5 6 7 7 7 5 5 6 5 5 6 4 5 6 6 6 5 5 5 5 5 5 5 5 6 5 4 2 2
2 1 1 1 3 3 3 3 3 4 5 6 6 6 6 6 6 7 7 6 5 6 7 6 6 7 4 4 5 5 5 8 6 5 5 5 5 5 5 5 6 5 5 5
1 2 2 3 4 4 4 4 4 4 5 6 7 7 7 7 7 7 8 7 6 7 7 6 7 6 4 5 5 4 4 5 8 5 5 6 6 6 6 6 6 6 6 6
3 4 4 4 4 4 5 5 5 5 5 6 6 6 6 6 7 9 9 8 7 7 7 6 6 5 4 4 4 4 4 4 5 5 5 5 5 6 6 6 7 7 4 5
1 2 3 3 3 3 4 5 5 6 6 6 5 6 6 7 7 8 8 7 7 8 8 6 7 5 4 5 5 4 4 4 4 4 4 6 6 5 6 6 7 7 6 6
2 2 3 4 4 4 5 5 6 6 6 5 6 6 7 7 8 8 7 7 6 7 7 7 6 5 5 5 5 4 5 5 5 5 5 5 6 6 6 6 6 7 7 6
4 4 4 4 5 5 5 6 6 7 7 6 6 7 7 8 7 7 6 7 8 7 7 8 5 4 4 4 5 4 5 5 5 5 5 6 6 6 6 6 6 7 7 6
5 5 6 6 6 7 7 6 7 8 7 7 7 7 7 8 8 7 7 7 8 9 6 4 4 6 6 5 3 4 4 5 4 4 5 5 6 6 6 6 6 6 6 6
5 5 6 6 7 7 7 6 7 7 7 7 7 8 7 7 6 6 8 7 6 9 6 5 7 9 8 4 3 4 4 4 4 4 4 5 5 6 6 6 6 6 6 6
6 6 6 6 6 6 7 8 7 7 7 7 7 8 7 6 6 6 6 10 11 10 6 7 10 10 6 3 3 4 4 4 3 3 3 3 4 4 5 5 5 5 6 7
7 7 6 6 6 6 7 7 7 8 8 6 8 8 7 5 6 6 6 7 9 8 5 7 10 9 4 3 4 4 4 4 3 3 3 4 4 4 5 5 5 5 5 6
7 6 7 7 7 6 5 5 5 6 5 6 6 6 6 5 6 5 5 6 7 7 5 4 4 5 3 3 3 4 3 3 4 3 4 4 5 5 5 5 6 5 5 5
7 6 5 6 6 5 5 5 5 6 6 6 6 6 6 6 5 5 5 4 4 4 3 3 3 3 3 3 3 3 3 3 3 4 4 4 4 4 5 6 6 6 5 6
Wind_Direction
243 257 250 254 264 252 203 192 194 231 236 258 255 239 241 232 203 189 199 199 197 198 199 197 194 194 193 193 189 180 175 182 194 198 196 196 200 205 209 194 181 180 177 305
324 315 318 297 284 267 246 219 216 238 267 265 257 245 265 215 189 197 210 212 207 203 199 198 197 194 192 193 190 180 182 192 193 188 189 192 195 197 197 207 201 174 198 225
297 310 356 305 269 242 250 261 196 219 250 274 313 183 191 195 189 208 219 213 206 204 204 204 202 194 193 194 184 182 189 192 189 186 189 197 195 189 201 213 202 195 218 216
274 5 272 257 278 182 125 6 348 265 276 273 224 207 187 184 195 226 230 216 214 211 209 207 200 194 192 182 178 185 191 194 192 188 192 194 190 197 208 204 200 206 214 211
124 243 287 304 314 310 129 6 349 2 355 353 8 42 0 337 279 233 229 218 213 209 205 198 194 189 178 181 183 187 194 196 195 190 189 189 195 203 202 193 201 203 201 197
134 168 242 272 302 312 91 9 333 7 21 12 46 43 300 310 313 298 288 253 232 206 182 190 198 178 174 186 187 198 202 200 195 189 189 193 199 199 192 186 196 193 193 195
177 211 258 281 309 31 82 261 303 360 28 39 99 223 266 309 330 325 306 289 285 187 191 205 192 173 183 190 201 206 200 193 190 192 193 194 192 187 180 178 176 179 184 201
146 184 258 316 21 79 224 255 310 357 6 10 321 314 325 337 341 341 336 318 308 231 233 218 183 177 191 206 210 195 185 188 193 195 195 187 176 179 174 169 169 179 175 192
189 211 240 321 332 277 215 285 317 332 337 352 347 331 326 323 326 327 326 316 300 249 246 243 203 188 201 215 198 180 180 190 194 192 191 180 176 178 173 171 173 184 181 193
312 288 306 326 358 353 355 346 332 341 351 1 342 327 326 323 321 322 321 317 311 291 259 253 235 216 214 207 187 181 188 193 187 183 185 183 180 179 177 181 183 185 188 196
282 282 314 334 336 333 344 350 347 339 336 341 339 325 319 316 312 308 308 306 303 274 257 253 241 231 220 190 176 186 193 193 188 184 178 178 181 189 188 197 194 188 195 190
245 248 236 269 283 308 336 335 327 330 329 327 324 311 312 306 301 301 302 304 305 292 275 266 249 236 222 197 181 181 189 192 188 181 179 174 168 172 210 201 196 194 191 185
236 253 241 262 280 313 325 327 326 320 313 314 315 308 307 301 300 304 305 304 295 288 280 272 259 245 229 205 192 190 194 193 188 184 181 180 178 176 179 207 148 190 193 190
267 277 287 287 287 306 322 324 330 332 327 316 311 310 310 305 307 309 302 295 291 294 293 280 263 252 240 212 200 202 199 195 188 190 188 187 188 189 184 179 184 205 213 199
281 254 235 254 277 307 321 335 343 334 327 323 318 315 311 307 303 300 298 297 300 301 296 290 273 263 252 219 205 203 198 197 194 190 190 190 188 187 187 187 185 177 166 189
281 318 312 305 303 311 324 327 315 309 311 313 316 313 304 296 293 297 301 298 293 288 287 283 275 267 247 220 209 206 205 201 190 188 187 187 187 187 188 187 186 184 187 187
221 280 283 293 296 296 290 283 276 285 297 302 302 304 306 308 309 307 302 296 282 276 277 271 273 274 249 222 208 206 204 201 192 188 192 192 190 192 191 188 190 193 197 191
219 230 237 244 258 273 283 285 281 282 284 287 295 304 309 308 302 299 299 302 302 296 288 280 279 281 256 227 212 203 198 198 197 198 198 197 195 192 191 192 192 190 186 184
257 260 268 267 263 262 270 280 283 281 282 285 288 290 290 291 292 294 298 300 297 293 292 293 290 281 257 236 220 202 197 199 202 203 201 197 193 192 193 193 191 188 181 177
272 264 271 280 283 277 277 282 285 285 285 283 284 289 294 296 298 296 293 284 272 268 278 288 288 275 259 238 222 203 200 200 202 205 203 198 195 193 193 193 189 185 182 180
284 285 286 286 286 283 280 282 285 282 283 280 276 279 284 290 295 294 291 289 287 283 283 284 283 269 259 250 223 209 206 205 205 205 204 200 195 190 189 188 188 186 183 180
288 286 285 286 285 286 284 282 280 279 281 281 279 279 285 291 295 291 276 269 277 283 284 273 273 270 270 263 223 209 209 210 209 206 205 198 191 188 188 185 184 184 181 176
278 276 277 281 278 279 284 284 281 281 281 279 278 278 277 276 277 277 283 279 277 281 282 267 269 274 272 254 225 213 209 209 206 204 203 196 188 184 182 182 181 177 174 172
279 276 273 276 278 283 285 286 284 282 280 280 276 275 274 278 280 270 267 282 285 283 274 268 270 272 270 245 223 214 209 206 202 198 192 185 178 175 173 171 171 170 167 166
274 274 275 278 278 273 272 278 285 285 286 284 282 280 276 266 266 276 279 278 282 283 278 274 273 272 262 238 222 211 207 204 196 185 177 173 173 170 164 160 160 160 160 163
270 270 270 266 263 263 265 270 276 282 284 286 289 288 285 280 275 274 276 279 278 280 277 272 269 261 247 238 226 211 200 197 193 182 174 171 168 164 159 156 153 155 156 156
274 274 277 281 278 266 261 261 265 271 271 271 280 285 286 287 285 281 281 280 277 274 272 270 265 252 244 237 226 211 197 188 182 178 173 164 161 160 160 159 158 154 151 152